#timestamp,LO_Frequency,Hit 
1499014815.6,286046999.6,N
1499014835.4,286046996.6,N
1499014855.3,286046999.5,N
1499014875.1,286046996.9,N
1499014876.0,286046996.9,N
1499014895.8,286046996.5,N
1499014915.7,286046996.9,N
1499014935.5,286046996.8,N
1499014955.3,286046997.1,N
1499014975.2,286046997.8,N
1499014995.0,286046996.8,N
1499014995.9,286046996.8,N
1499015015.7,286046997.3,N
1499015035.6,286046997.2,N
1499015055.4,286046997.7,N
1499015075.3,286046996.5,N
1499015095.1,286046999.1,N
1499015096.0,286046999.1,N
1499015115.8,286046998.9,N
1499015135.7,286046998.9,N
1499015155.5,286046996.8,N
1499015175.3,286046997.0,N
1499015195.2,286046999.3,N
1499015215.0,286046999.2,N
1499015215.9,286046999.2,N
1499015235.7,286046999.1,N
1499015255.6,286046999.3,N
1499015275.4,286046999.5,N
1499015295.2,286046997.3,N
1499015315.1,286046997.8,N
1499015316.0,286046997.8,N
1499015335.8,286046997.0,N
1499015355.7,286046996.7,N
1499015375.5,286046999.1,N
1499015395.3,286046998.3,N
1499015415.2,286046998.2,N
1499015435.9,286046998.9,N
1499015455.7,286046999.3,N
1499015475.6,286046998.5,N
1499015495.4,286046998.6,N
1499015515.2,286046998.5,N
1499015535.1,286046998.1,N
1499015536.0,286046998.1,N
1499015555.8,286046998.1,N
1499015575.7,286046998.4,N
1499015595.5,286046998.7,N
1499015615.3,286046999.6,N
1499015635.2,286046999.5,N
1499015655.9,286046997.2,N
1499015675.7,286046997.9,N
1499015695.6,286046996.5,Y
1499015715.4,286046998.2,N
1499015735.2,286046998.7,N
1499015755.1,286047000.8,N
1499015756.0,286047000.8,N
1499015775.8,286047000.8,N
1499015795.7,286046999.8,N
1499015815.5,286047000.0,N
1499015835.3,286047000.6,N
1499015855.2,286047002.7,N
1499015875.9,286047000.1,N
1499015895.7,286046999.8,N
1499015915.6,286047002.3,N
1499015935.4,286047002.4,N
1499015955.2,286046999.7,N
1499015975.1,286047002.4,N
1499015976.0,286047002.4,N
1499015995.8,286046999.7,N
1499016015.6,286047002.5,N
1499016035.5,286047002.2,N
1499016055.3,286047002.1,N
1499016075.2,286047002.6,N
1499016095.9,286047002.2,N
1499016115.7,286047002.2,N
1499016135.6,286047002.2,N
1499016155.4,286047001.5,N
1499016175.2,286047001.6,N
1499016195.1,286047001.8,N
1499016196.0,286047001.8,N
1499016215.8,286047001.9,N
1499016235.6,286047004.4,N
1499016255.5,286047001.3,N
1499016275.3,286047003.7,N
1499016295.2,286047001.3,N
1499016315.9,286047001.7,N
1499016335.7,286047001.6,N
1499016355.6,286047000.4,N
1499016375.4,286047000.2,N
1499016395.2,286047000.3,N
1499016415.1,286047000.2,N
1499016416.0,286047000.2,N
1499016435.8,286047002.1,N
1499016455.6,286047001.5,N
1499016475.5,286047002.1,N
1499016495.3,286047002.0,N
1499016515.2,286047002.2,N
1499016535.9,286047002.2,N
1499016555.7,286047002.2,N
1499016575.6,286047002.2,N
1499016595.4,286047002.5,N
1499016615.2,286047002.4,N
1499016635.1,286047002.5,N
1499016636.0,286047002.5,N
1499016655.8,286047002.0,N
1499016675.6,286047001.9,N
1499016695.5,286047002.1,N
1499016715.3,286047002.6,N
1499016735.1,286046999.7,N
1499016755.9,286046999.9,N
1499016775.7,286047000.7,N
1499016795.6,286047000.3,N
1499016815.4,286047002.8,N
1499016835.2,286047000.4,N
1499016855.1,286047000.0,N
1499016856.0,286047000.0,N
1499016875.8,286047000.4,N
1499016895.6,286047000.6,N
1499016915.5,286047000.9,N
1499016935.3,286047000.4,N
1499016955.1,286047000.4,N
1499016975.9,286047000.0,N
1499016995.7,286046999.8,N
1499017015.6,286047002.4,N
1499017035.4,286047000.2,N
1499017055.2,286047000.0,N
1499017075.1,286046999.7,N
1499017076.0,286046999.7,N
1499017095.8,286047002.3,N
1499017115.6,286047002.2,N
1499017135.5,286047002.3,N
1499017155.3,286047002.0,N
1499017175.1,286047001.8,N
1499017195.9,286047002.2,N
1499017215.7,286047001.3,N
1499017235.6,286047001.6,N
1499017255.4,286047001.5,N
1499017275.2,286047002.6,N
1499017295.1,286047000.2,N
1499017296.0,286047000.2,N
1499017315.8,286047002.6,N
1499017335.6,286047002.0,N
1499017355.5,286047002.1,N
1499017375.3,286047001.7,N
1499017395.1,286047002.0,N
1499017415.9,286047001.6,N
1499017435.7,286047001.8,N
1499017455.5,286047001.4,N
1499017475.4,286047001.8,N
1499017495.2,286047001.5,N
1499017515.1,286047004.3,Y
1499017516.0,286047004.3,Y
1499017535.8,286047001.2,N
1499017555.6,286047000.8,N
1499017575.5,286046998.2,N
1499017595.3,286046998.1,N
1499017615.1,286046998.5,N
1499017635.9,286047000.0,N
1499017655.7,286047002.7,N
1499017675.5,286047002.5,N
1499017695.4,286047002.0,N
1499017715.2,286047001.6,N
1499017735.1,286047002.5,N
1499017736.0,286047002.5,N
1499017755.8,286047002.0,N
1499017775.6,286047001.3,N
1499017795.5,286047001.3,N
1499017815.3,286047001.5,N
1499017835.1,286047002.4,N
1499017855.9,286047002.1,N
1499017875.7,286047002.7,N
1499017895.5,286047002.2,N
1499017915.4,286047002.6,N
1499017935.2,286047002.6,N
1499017955.1,286047002.6,N
1499017956.0,286047002.6,N
1499017975.8,286047002.1,N
1499017995.6,286047002.7,N
1499018015.5,286047002.1,N
1499018035.3,286047002.0,N
1499018055.1,286047002.2,N
1499018075.9,286047001.9,N
1499018095.7,286047002.7,N
1499018115.5,286046999.9,N
1499018135.4,286047002.8,N
1499018155.2,286047001.9,N
1499018175.0,286047001.8,N
1499018176.0,286047011.9,Y
1499018195.8,286047000.9,N
1499018215.6,286046999.9,N
1499018235.5,286047000.0,N
1499018255.3,286047000.1,N
1499018275.1,286047000.2,N
1499018295.9,286047000.2,N
1499018315.7,286047000.1,N
1499018335.5,286047000.2,N
1499018355.4,286047000.1,N
1499018375.2,286047000.0,N
1499018395.0,286047000.0,N
1499018396.0,286047000.0,N
